Location: Ottawa
(45.4170°N, 75.7000°W)
Time: 19:14:33
(UTC-05:00)

Daily predictions for brighter satellites

Satellite Brightness Start Highest point End
(mag) Time Altitude Azimuth Time Altitude Azimuth Time Altitude Azimuth
Cosmos 1782 3.6 16:48:04 10° SSW 16:52:00 54° W 16:55:59 10° N
Nadezhda 1 Rocket 4.0 16:46:15 10° S 16:52:19 89° E 16:58:29 10° N
GEOS 3 Rocket 4.2 16:48:21 10° ESE 16:52:56 35° NE 16:57:33 10° NNW
Cosmos 2341 Rocket 4.1 16:47:23 10° N 16:53:31 57° ENE 16:59:36 10° SSE
SL-27 R/B 4.1 16:51:05 10° NNE 16:53:35 17° ENE 16:56:03 10° E
Cosmos 1455 Rocket 4.5 16:53:43 10° NNE 16:56:44 18° ENE 16:59:46 10° ESE
BREEZE-M DEB (TANK) 4.3 16:51:25 10° WNW 17:00:45 66° SW 17:04:38 10° SE
COSMOS 2406 3.3 16:55:23 10° NNW 17:01:01 56° ENE 17:06:39 10° SE
Cosmos 1048 Rocket 4.0 16:55:55 10° NNW 17:01:12 69° ENE 17:06:31 10° SSE
CORIOLIS 4.4 16:56:19 10° SE 17:01:28 46° ENE 17:06:36 10° N
ISS -1.3 17:01:25 10° S 17:03:38 17° SE 17:05:51 10° E
Cosmos 158 Rocket 4.2 16:59:19 10° NNW 17:04:36 52° ENE 17:09:44 10° SE
SL-16 R/B 4.3 17:00:09 10° N 17:05:13 27° WNW 17:10:16 10° WSW
Cosmos 2278 Rocket 3.9 17:03:06 10° ESE 17:05:37 13° E 17:08:08 10° ENE
Meteor 1-5 Rocket 4.2 17:06:47 10° N 17:12:03 54° ENE 17:17:26 10° SSE
SPOT 3 Rocket 3.5 17:12:47 10° SSE 17:17:58 73° ENE 17:23:09 10° N
CZ-2C R/B 2.4 17:13:08 10° SSE 17:18:02 70° ENE 17:23:07 10° N
Cosmos 1484 Rocket 3.6 17:18:32 10° SE 17:21:44 27° ENE 17:24:56 10° N
ATLAS CENTAUR R/B 3.9 17:20:54 10° WNW 17:23:40 15° NNW 17:26:22 10° N
Cosmos 1238 Rocket 3.5 17:22:41 10° SE 17:24:54 19° E 17:25:31 18° ENE
PAYLOAD A 4.3 17:21:17 10° S 17:26:00 68° WSW 17:30:57 10° NNW
Cosmos 2082 Rocket 3.6 17:23:20 10° N 17:27:05 18° NE 17:28:55 15° ENE
CRYOSAT 2 4.3 17:22:26 10° N 17:27:20 66° E 17:32:12 10° S
IDEFIX/ARIANE 42P 2.6 17:26:48 10° SSE 17:32:01 89° E 17:37:14 10° NNW
Cosmos 1833 Rocket 4.1 17:31:43 10° N 17:35:26 17° NE 17:36:28 17° ENE
COSMOS 2441 4.4 17:31:01 10° SSE 17:35:45 55° ENE 17:40:33 10° N
USA 32 4.1 17:31:22 10° SSE 17:36:29 58° E 17:41:37 10° NNE
BREEZE M DEB (TANK) 2.9 17:35:13 10° WNW 17:38:01 50° N 17:42:21 18° E
Cosmos 1536 3.5 17:34:31 10° NNW 17:38:30 57° W 17:42:30 10° S
Okean 1 4.3 17:37:44 10° SE 17:41:05 25° E 17:42:08 23° ENE
COSMO-SKYMED 1 3.1 17:39:19 14° NE 17:42:39 36° E 17:46:39 10° SSE
Cosmos 1544 Rocket 3.5 17:40:35 10° N 17:45:02 66° E 17:49:28 10° SSE
Meteor 1-18 Rocket 4.5 17:39:44 10° SSE 17:45:03 46° E 17:50:30 10° NNE
APEX 4.5 17:39:02 10° SSW 17:45:43 75° WNW 17:50:57 10° NNE
USA 234 3.6 17:42:38 15° NE 17:48:08 61° NNW 17:54:32 10° WSW
SL-24 DEB 4.5 17:43:48 10° NNE 17:48:27 49° E 17:53:00 10° SSE
Cosmos 1975 Rocket 3.3 17:45:39 10° SSW 17:49:55 68° W 17:54:16 10° N
Cosmos 372 Rocket 4.1 17:45:46 10° SSW 17:51:01 80° WNW 17:56:19 10° NNE
MSX 3.8 17:45:16 10° SSE 17:51:02 88° ENE 17:56:50 10° NNW
SMAP 3.8 17:47:46 10° S 17:52:20 56° W 17:56:56 10° NNW
Meteor 1-28 Rocket 4.4 17:54:50 24° ESE 17:54:50 24° ESE 17:57:22 10° SSE
Thor Agena Rocket 3.9 17:49:56 10° N 17:55:05 68° WNW 18:00:16 10° SSW
Cosmos 2263 Rocket 3.8 17:52:11 10° WSW 17:57:05 30° NW 18:02:01 10° N
CZ-3B DEB 2.5 17:55:52 10° SSW 17:59:44 56° SE 18:05:04 23° ENE
Cosmos 1125 Rocket 4.5 17:55:13 10° SW 18:00:20 47° WNW 18:05:29 10° NNE
CZ-4 R/B 3.4 17:57:02 10° SSW 18:00:48 32° W 18:04:34 10° NNW
NOAA 12 4.4 17:56:49 10° SE 18:01:47 43° ENE 18:06:45 10° N
Cosmos 1346 Rocket 4.3 18:01:16 10° SSE 18:02:56 20° SE 18:02:56 20° SE
Cosmos 494 Rocket 3.9 18:00:16 10° NNW 18:05:30 73° ENE 18:10:45 10° SSE
Cosmos 1536 Rocket 3.6 18:02:02 10° S 18:06:24 58° E 18:09:13 21° NNE
SL-8 Rocket 4.4 18:02:42 10° NNW 18:08:49 66° W 18:14:54 10° S
ATLAS 2AS CENTAUR R/B 3.0 18:01:13 10° NW 18:09:24 90° SW 18:17:03 10° SE
Cosmos 1812 2.5 18:06:16 10° S 18:10:07 76° E 18:12:08 27° NNE
Meteor 1-12 Rocket 4.2 18:05:18 10° N 18:11:05 82° ENE 18:16:56 10° SSE
Cosmos 2251 Rocket 3.5 18:06:43 10° NNW 18:12:07 86° WSW 18:17:26 10° SSE
SKYMED 3 4.4 18:09:41 19° NNE 18:12:46 75° ESE 18:17:06 10° S
YAOGAN 1 4.3 18:08:57 10° SSW 18:12:55 35° W 18:16:54 10° NNW
Cosmos 2366 rocket 4.2 18:11:58 10° NNW 18:18:21 76° W 18:24:38 10° S
Cosmos 2218 Rocket 4.4 18:12:26 10° NNW 18:18:43 67° W 18:24:52 10° S
Cosmos 1975 2.7 18:14:43 10° N 18:18:50 78° E 18:22:53 10° SSE
Abrixas 3.5 18:16:19 10° WNW 18:18:36 37° NNW 18:18:36 37° NNW
OTV 4 3.2 18:21:16 10° SW 18:22:40 13° SSW 18:23:24 12° S
Cosmos 1844 Rocket 2.9 18:17:55 10° SSW 18:23:30 70° WNW 18:27:30 20° NNE
Timation 2 Rocket 4.3 18:18:42 10° NNW 18:25:18 51° NE 18:28:07 33° ESE
SL-27 R/B 4.0 18:25:35 10° NW 18:29:01 38° WSW 18:32:25 10° S
Cosmos 1844 3.7 18:24:53 10° SSW 18:30:28 81° WNW 18:33:29 28° NNE
SKYMED 2 3.7 18:27:56 21° N 18:30:49 71° WNW 18:35:08 10° SSW
GEOS 3 Rocket 4.3 18:25:51 10° SSE 18:30:50 53° WSW 18:35:51 10° NW
DMSP B5D1-3 4.4 18:27:56 21° NNE 18:31:29 83° ESE 18:36:36 10° SSW
Cosmos 1241 Rocket 4.5 18:28:04 10° NNW 18:34:44 85° NE 18:39:45 19° SE
Cosmos 1455 Rocket 4.1 18:30:38 10° NNW 18:34:51 46° W 18:39:04 10° SSW
SL-8 R/B 4.4 18:35:02 10° SSW 18:39:03 38° SSE 18:39:03 38° SSE
ISS -2.1 18:36:28 10° WSW 18:38:49 43° WSW 18:38:49 43° WSW
Cosmos 2239 Rocket 4.4 18:40:16 10° N 18:46:27 62° ENE 18:52:33 10° SSE
BREEZE-M R/B 3.7 18:37:57 10° SW 18:47:03 66° SSE 18:47:38 61° ESE
Cosmos 2278 Rocket 2.1 18:43:08 10° SSW 18:48:48 88° ESE 18:50:04 56° NNE
Meteor 1-13 Rocket 4.1 18:44:23 10° S 18:49:59 70° E 18:50:26 67° ENE
BREEZE-M DEB (TANK) 4.3 18:47:04 10° WNW 18:52:05 41° NNW 18:52:05 41° NNW
Cosmos 1821 Rocket 3.8 18:48:08 10° N 18:54:14 67° E 18:54:32 66° E
Cosmos 2082 Rocket 2.5 19:06:21 10° NNW 19:10:49 57° NNW 19:10:49 57° NNW
Nadezhda 3 Rocket 4.3 19:10:13 10° SSW 19:16:20 64° W 19:21:20 16° N
Cosmos 1833 Rocket 3.5 19:14:34 10° NNW 19:18:13 42° NNW 19:18:13 42° NNW
USA 234 4.2 19:29:59 34° N 19:30:27 35° N 19:36:13 10° WNW
NOSS 3-4 (A) 4.4 19:37:55 10° NW 19:42:42 47° NNW 19:42:42 47° NNW
NOSS 3-4 (C) 4.4 19:38:01 10° NW 19:42:47 47° NNW 19:42:47 47° NNW
FALCON 9 R/B 4.0 19:51:07 10° WSW 20:01:52 34° SSW 20:01:52 34° SSW
CZ-3B DEB 4.0 20:29:24 10° W 20:34:11 48° NW 20:34:11 48° NW
